Reflectivity
22 15 16 12 -20 -9 4 -7 -20 -20 -20 -20 -20 -20 -20 -20 -20 -20 -20 -20 -20 -20 -17 -2 -9 -15 -17 -20 -20 -20 -20 -20 -20 -11 10 9 12 14
-20 -20 -20 -20 -20 -14 -16 -13 -6 -20 -20 -20 -20 -20 -20 -20 -20 -20 -20 -20 -20 -20 -20 -20 -17 -20 -20 -20 -20 -20 -20 -20 -20 -20 16 16 11 18
-9 -20 -20 -20 -20 -20 -20 -20 -20 -20 -20 -20 -20 -20 -20 -20 -20 -20 -20 -20 -20 -20 -20 -20 -20 -20 -20 -20 -20 -20 -20 -20 -20 -20 15 15 11 14
22 23 11 27 30 -20 17 -4 -20 -20 -20 -20 -20 -20 -20 -20 -20 -20 -20 -20 -20 -20 -20 -20 -20 -20 -20 -20 -20 -20 -20 -20 -20 -20 12 3 2 14
19 21 33 28 21 -14 32 -17 -20 6 -20 -9 -20 -20 -20 -20 -20 -20 -20 -20 -20 -20 -20 8 -20 -20 -20 -20 -20 -20 -20 -20 -19 7 13 -3 6 2
-15 -1 16 20 20 25 31 -18 32 -20 16 -19 -20 -20 -20 -20 -20 -20 -20 -20 -20 -20 -20 -20 -7 -16 -2 -20 -20 -20 -20 -20 -3 -1 12 -16 14 20
2 -5 -19 -2 3 27 33 10 32 26 13 -8 -20 -20 -20 -20 -20 -20 -20 -20 -20 -20 -20 -20 -20 -20 -20 -20 -20 -20 -20 -20 -20 -12 -1 9 9 14
-20 6 -20 16 6 -6 9 4 29 21 28 6 25 -20 -20 -20 -20 -20 -20 -20 -20 -20 -20 -20 -20 -20 -20 -20 -20 -20 -20 -20 -20 -20 -20 11 13 19
-20 -20 -20 -17 15 13 9 14 -13 15 15 26 1 -3 -20 -20 -20 -9 -20 -20 -20 -20 -20 -20 -20 -20 -20 -20 -20 -20 -20 -20 -20 -20 -20 -15 13 17
-20 -20 -20 -20 -5 -4 -11 -9 -8 -15 -0 -19 -20 -20 -20 -20 -20 -20 -20 -20 -20 -20 -20 -20 -20 -20 -20 -20 -20 -20 -20 -20 -20 -20 -20 -20 -1 10
-20 -20 -13 1 8 11 11 15 1 -3 -16 -17 -20 -20 -20 -20 -16 -20 -20 -20 -20 -20 -20 -20 -20 -20 -20 -20 -20 -20 -20 -20 -20 -20 -20 -20 -20 2
-20 -20 15 6 16 12 -1 -5 -20 -19 -14 -20 -20 -20 -20 -20 -20 -20 -20 -20 -20 -20 -20 -20 -20 -20 -20 -20 -20 -20 -20 -20 -20 -20 -20 -20 -20 -20
-20 -20 -8 15 11 10 9 -4 -8 -12 -19 -20 -20 -20 -20 -20 -20 -20 -20 -20 -20 -20 -20 -20 -20 -20 -20 -20 -20 -20 -20 -20 -20 -20 -20 -20 -20 -20
-15 -20 -11 23 21 12 26 12 14 14 -16 -20 -20 -20 -20 -20 -20 -20 -20 -20 -20 -20 -20 -20 -20 -20 -20 -20 -20 -20 -20 -20 -20 -20 -20 -20 -20 -20
10 11 14 -2 32 25 32 20 16 23 20 8 -11 3 -18 -20 -20 -20 -20 -20 -20 -20 -20 -20 -20 -20 -20 -20 -20 -20 -20 -20 -20 -20 -20 -20 -20 -20
19 21 17 9 25 22 21 32 23 24 22 15 23 21 -4 -20 -8 -0 0 -4 -3 -20 -20 -20 -20 -20 -20 -20 -20 -20 -20 -20 -20 -20 -20 -20 -20 -20
13 5 9 12 7 13 24 15 28 26 23 26 29 28 21 7 17 17 15 -15 -20 -20 -20 -20 -20 -20 -20 -20 -20 -20 -20 -20 -20 -20 -20 -20 -20 -20
8 10 1 2 1 -7 3 22 21 21 29 22 26 27 23 18 15 5 -7 -20 -20 -20 -20 -20 -20 -20 -20 -20 -20 -20 -20 -20 -20 -20 -20 -20 -20 -20
6 15 2 -9 -6 -0 4 21 20 8 20 24 26 24 23 26 1 -20 -20 -20 -20 -20 -20 -20 -20 -20 -20 -20 -20 -20 -20 -20 -20 -20 -20 -20 -20 -20
8 25 22 7 -9 -10 23 23 27 20 6 16 19 19 16 23 7 -20 -20 -20 -20 -20 -20 -20 -20 -20 -20 -20 -20 -20 -18 -20 -2 -20 -20 -20 -20 -20
1 17 25 11 9 -3 17 20 22 15 2 10 6 20 20 19 -13 -20 -20 -20 -20 -20 -19 -9 -14 -19 -20 -20 -1 -9 -20 -20 -20 -20 -20 -20 -20 -20
-2 1 16 17 3 -4 10 25 19 13 16 27 17 21 19 13 -20 -20 -20 -20 -19 5 8 -9 -20 -20 -20 2 2 -18 -20 -20 -20 -20 -20 -20 -20 -20
-10 5 19 17 13 9 16 20 9 15 28 23 22 17 12 -10 -2 -20 -20 -20 -19 -19 -20 -20 -20 -20 -6 -5 -20 -20 -20 -20 -20 -20 -20 -20 -20 -20
Wind_Speed
7 6 4 3 4 4 4 4 5 4 5 4 3 2 2 2 3 3 3 1 2 3 3 3 3 4 5 6 8 11 11 13 13 14 16 17 19 19
5 6 5 4 5 4 4 4 4 5 3 2 2 4 4 3 4 3 2 2 0 2 2 2 2 3 4 6 9 11 12 14 15 15 17 18 20 21
7 8 9 7 6 4 4 3 3 3 4 1 2 2 3 5 4 2 1 2 1 2 3 3 2 1 3 6 7 11 12 13 14 16 17 18 21 23
10 10 11 7 7 5 4 6 5 4 3 4 2 2 3 3 3 4 2 2 2 2 2 2 3 1 4 6 7 10 12 13 13 15 18 18 21 25
6 8 9 9 7 6 6 5 4 3 4 4 3 2 1 2 2 2 3 3 2 3 4 3 2 1 4 5 6 9 11 12 12 14 16 18 20 24
6 7 6 7 5 4 5 5 3 4 4 3 3 3 2 2 2 2 2 2 2 2 4 3 2 2 4 3 6 8 10 11 11 13 16 17 19 20
5 5 6 7 10 11 6 6 6 4 3 3 3 3 3 3 4 3 4 3 3 3 3 1 1 2 3 5 5 7 7 8 11 11 15 17 19 20
8 7 6 8 10 13 13 14 14 11 9 5 4 4 5 5 4 4 4 3 3 2 3 3 2 3 1 3 5 4 5 8 10 12 13 16 17 18
6 5 5 4 7 5 11 12 15 16 12 10 6 8 6 7 6 5 5 4 3 2 4 2 2 2 2 2 5 3 4 7 10 11 13 14 17 17
6 6 7 7 7 7 6 6 5 5 6 5 7 6 5 7 8 7 6 4 3 2 1 2 2 3 1 2 6 2 5 5 8 10 12 13 14 16
7 6 7 6 10 14 7 6 5 4 5 7 8 9 9 12 9 6 5 5 2 3 4 3 2 1 1 2 2 4 1 4 7 10 12 12 12 12
7 6 13 10 13 17 9 9 9 7 5 4 3 4 6 7 16 8 7 6 3 1 5 4 2 3 2 1 1 1 2 4 5 8 10 11 11 4
6 5 6 16 16 18 18 9 9 7 10 5 4 3 1 1 4 3 5 4 3 2 5 4 3 1 2 2 1 1 1 1 2 4 7 9 9 7
9 7 7 16 18 18 16 16 15 10 5 4 3 3 3 2 1 2 3 3 1 3 7 4 4 4 3 1 2 1 1 1 2 2 2 4 6 8
8 11 13 16 18 17 20 18 17 7 6 6 6 4 3 3 5 4 4 5 5 5 4 3 5 3 3 3 3 2 2 0 2 1 2 2 1 2
12 10 11 13 14 11 11 12 7 7 7 7 5 3 4 4 3 2 2 2 3 2 3 3 4 4 2 2 3 2 1 2 1 0 1 1 1 1
12 3 4 4 6 5 4 6 6 7 8 7 5 5 4 5 4 2 2 2 3 4 2 1 3 2 2 5 2 2 3 1 1 2 2 2 2 2
11 6 7 6 7 8 7 6 6 10 8 7 6 8 7 6 6 2 2 2 3 3 3 3 3 2 3 2 5 3 2 2 1 2 1 2 3 2
9 7 7 7 7 7 7 8 8 8 8 8 7 7 7 7 10 6 3 2 2 3 2 2 3 3 2 3 1 8 4 2 3 1 2 2 2 2
7 5 7 8 7 7 7 7 7 7 9 8 8 7 7 8 7 7 7 7 4 3 3 2 3 3 4 5 3 1 6 4 3 2 1 1 3 7
9 7 6 6 7 7 8 7 8 9 9 9 8 8 9 8 7 7 7 12 10 4 6 6 6 8 2 2 3 2 1 10 5 4 3 3 1 2
8 8 6 6 7 8 8 8 8 8 9 8 9 9 8 8 8 8 8 8 7 6 3 3 4 5 2 3 3 3 1 1 7 7 8 7 5 2
9 8 7 6 7 7 7 8 8 8 9 9 8 8 9 8 8 8 8 8 6 6 4 4 4 3 3 4 5 3 3 2 2 2 2 10 10 8
Wind_Direction
200 212 192 223 223 211 172 163 159 189 220 209 162 179 153 126 165 128 128 107 140 106 79 65 60 41 15 357 353 343 336 325 316 309 311 312 307 309
195 206 218 215 207 205 183 178 175 163 198 139 196 157 174 158 158 127 168 162 148 199 159 107 106 43 14 359 356 337 333 322 318 316 316 313 309 315
212 206 214 194 201 188 184 162 175 155 170 172 127 170 166 165 140 103 271 244 210 212 191 203 158 103 12 353 348 342 331 326 324 319 316 321 319 324
223 220 220 198 191 177 194 191 167 161 139 168 152 147 179 199 165 148 199 179 243 208 207 228 222 37 343 337 341 329 344 328 331 322 322 328 336 334
232 229 231 209 192 180 187 178 157 155 164 152 155 143 134 153 147 169 174 201 237 226 234 257 218 247 317 325 337 338 342 342 335 332 335 338 349 343
207 206 200 201 204 206 187 164 177 166 150 157 163 151 172 152 139 153 206 201 220 223 239 208 206 307 309 351 340 340 344 334 328 336 345 350 355 352
228 223 216 204 190 174 190 168 172 190 150 171 157 176 185 168 167 162 197 168 220 195 204 214 160 28 319 333 331 333 331 345 331 342 351 358 3 4
224 214 212 207 220 207 198 185 179 185 194 173 162 210 194 177 156 167 143 155 226 174 170 209 165 195 239 287 306 327 337 334 347 356 354 1 13 11
235 219 211 199 198 189 205 196 199 200 190 188 186 193 189 173 149 168 174 161 189 174 125 215 174 215 206 288 303 306 329 338 354 1 4 11 14 21
234 231 222 204 187 178 183 185 200 208 209 191 205 198 199 165 176 171 176 131 90 92 159 188 169 199 133 266 299 259 298 2 357 15 9 12 17 19
247 228 220 221 210 200 191 196 206 228 232 214 199 206 195 175 158 131 142 151 182 188 221 131 215 120 121 241 257 255 305 11 4 23 19 19 20 21
239 227 225 217 206 208 198 197 205 206 175 170 180 209 212 203 180 184 154 173 136 74 208 150 139 123 346 250 240 261 339 329 8 24 21 18 24 19
245 225 219 220 219 211 200 196 204 157 192 174 165 152 121 134 128 157 163 144 147 205 185 125 125 130 111 244 279 264 189 316 19 13 5 7 21 46
244 241 231 215 213 211 209 198 202 181 154 160 157 176 165 193 134 126 155 131 94 164 163 139 133 151 142 271 185 321 16 340 74 26 346 345 26 20
265 246 228 216 217 216 212 204 199 167 164 175 183 180 173 139 119 102 78 84 69 79 122 127 123 154 141 155 179 183 117 11 65 65 331 352 1 21
287 255 225 211 210 211 206 203 178 170 180 186 174 120 112 138 151 143 134 132 108 114 66 132 135 140 137 168 131 137 163 136 106 128 292 321 335 25
283 269 213 201 199 192 185 194 180 171 179 168 159 146 166 157 172 161 126 126 123 155 166 116 116 135 138 148 123 160 148 156 192 162 76 336 307 281
271 257 237 217 213 203 196 189 185 184 182 167 171 159 167 184 173 143 116 123 138 174 155 161 133 67 2 277 188 134 136 152 170 153 103 96 313 316
273 251 231 217 214 210 205 198 198 191 169 168 172 165 164 186 181 174 157 138 161 154 160 154 144 125 113 191 275 190 136 154 133 96 166 164 191 273
281 256 234 232 210 211 204 197 190 175 174 170 168 171 178 187 174 180 181 194 169 153 156 156 152 180 154 183 155 140 189 130 145 155 201 254 239 272
297 265 239 220 210 202 202 196 192 185 175 169 168 173 181 181 181 178 180 192 186 172 191 193 196 170 139 101 71 27 79 200 170 157 164 110 104 344
299 282 252 228 211 206 201 196 191 188 180 176 171 174 177 176 179 176 179 187 193 191 174 128 138 130 126 140 164 152 121 142 209 202 191 172 160 202
303 291 267 235 218 208 199 192 192 188 186 178 174 168 172 175 179 179 175 186 179 163 151 140 151 138 160 175 163 159 164 158 155 170 236 229 232 240